Weather History for Middlebury State AP, Middlebu, VT

Change the Weather History Date:

Saturday, January 4, 2014

  Actual Average (KMPV) Record (KMPV)
Temperature  
Mean Temperature 4 °F 17 °F  
Max Temperature 22 °F 27 °F 66 °F (1950)
Min Temperature -14 °F 8 °F -34 °F (1981)
Degree Days  
Heating Degree Days 61 48  
Month to date heating degree days 190  
Since 1 July heating degree days 3338  
Moisture  
Dew Point -5 °F    
Average Humidity 56    
Maximum Humidity 80    
Minimum Humidity 32    
Precipitation  
Precipitation 0.00 in 0.07 in 1.42 in (1982)
Month to date precipitation 0.29  
Year to date precipitation 0.29  
Sea Level Pressure  
Sea Level Pressure 30.26 in    
Wind  
Wind Speed 5 mph (SE)    
Max Wind Speed 14 mph    
Max Gust Speed 24 mph    
Visibility 9 miles    
Events Snow    
T = Trace of Precipitation, MM = Missing Value Source: NWS Daily Summary

Daily Weather History Graph

Daily Weather History Graph

Search for Another Location

Airport:

Trip Planner

Search our weather history database for the weather conditions in past years. The results will help you decide how hot, cold, wet, or windy it might be!

Date:

Astronomy

Jan. 04, 2014 Rise Set
Actual Time 7:27 AM EST 4:27 PM EST
Civil Twilight 6:54 AM EST 5:00 PM EST
Nautical Twilight 6:18 AM EST 5:36 PM EST
Astronomical Twilight 5:43 AM EST 6:11 PM EST
Moon 9:22 AM EST (1/4) 8:54 PM EST (1/4)
Length of Visible Light 10h 06m
Length of Day
9h 00m
Waxing Crescent, 15% of the Moon is Illuminated
Jan 4
Waxing Crescent
Jan 7
First Quarter
Jan 15
Full
Jan 24
Last Quarter
Jan 30
New

Hourly Weather History & Observations

Time (EST) Temp. Windchill Dew Point Humidity Pressure Visibility Wind Dir Wind Speed Gust Speed Precip Events Conditions
12:15 AM -14.8 °F - -19.5 °F 79% 30.40 in 10.0 mi Calm Calm - N/A   Clear
12:35 AM -14.6 °F -24.5 °F -19.1 °F 80% 30.39 in 10.0 mi East 3.5 mph - N/A   Clear
12:55 AM -13.9 °F - -19.1 °F 77% 30.39 in 10.0 mi Calm Calm - N/A   Clear
1:15 AM -13.5 °F - -18.4 °F 79% 30.40 in 10.0 mi Calm Calm - N/A   Clear
1:35 AM -12.8 °F -22.5 °F -17.5 °F 80% 30.40 in 10.0 mi East 3.5 mph - N/A   Clear
1:55 AM -12.5 °F - -17.5 °F 78% 30.40 in 10.0 mi Calm Calm - N/A   Clear
2:15 AM -12.6 °F -22.3 °F -17.5 °F 79% 30.40 in 10.0 mi ESE 3.5 mph - N/A   Clear
2:35 AM -13.4 °F -25.5 °F -18.4 °F 78% 30.39 in 10.0 mi ESE 4.6 mph - N/A   Clear
2:55 AM -12.1 °F -24.0 °F -16.8 °F 80% 30.38 in 10.0 mi SE 4.6 mph - N/A   Clear
3:15 AM -9.9 °F -19.2 °F -15.3 °F 77% 30.38 in 10.0 mi ESE 3.5 mph - N/A   Clear
3:35 AM -10.7 °F - -15.3 °F 80% 30.37 in 10.0 mi Calm Calm - N/A   Clear
3:55 AM -8.7 °F - -14.1 °F 77% 30.37 in 10.0 mi Calm Calm - N/A   Clear
4:15 AM -8.0 °F - -13.0 °F 79% 30.37 in 10.0 mi Calm Calm - N/A   Clear
4:35 AM -7.2 °F -16.1 °F -12.6 °F 77% 30.36 in 10.0 mi SE 3.5 mph - N/A   Clear
4:55 AM -6.5 °F -19.3 °F -11.2 °F 80% 30.35 in 10.0 mi SE 5.8 mph - N/A   Clear
5:15 AM -3.1 °F -15.2 °F -10.3 °F 71% 30.37 in 10.0 mi SE 5.8 mph - N/A   Clear
5:35 AM -3.1 °F -13.5 °F -9.9 °F 73% 30.36 in 10.0 mi ESE 4.6 mph - N/A   Clear
5:55 AM -0.9 °F -14.1 °F -9.6 °F 67% 30.36 in 10.0 mi ESE 6.9 mph - N/A   Clear
6:15 AM -1.3 °F -13.1 °F -9.9 °F 67% 30.37 in 10.0 mi ESE 5.8 mph - N/A   Clear
6:35 AM -0.6 °F -10.6 °F -11.2 °F 61% 30.37 in 10.0 mi ESE 4.6 mph - N/A   Clear
6:55 AM -3.3 °F -11.6 °F -10.3 °F 72% 30.37 in 10.0 mi SE 3.5 mph - N/A   Clear
7:15 AM 0.5 °F -14.6 °F -9.9 °F 62% 30.36 in 10.0 mi SE 9.2 mph - N/A   Clear
7:35 AM 1.4 °F -13.5 °F -9.4 °F 61% 30.36 in 10.0 mi ESE 9.2 mph - N/A   Mostly Cloudy
7:55 AM 1.4 °F -11.3 °F -10.3 °F 58% 30.38 in 10.0 mi ESE 6.9 mph - N/A   Scattered Clouds
8:15 AM 2.1 °F -9.0 °F -9.6 °F 58% 30.37 in 10.0 mi East 5.8 mph - N/A   Clear
8:35 AM 2.8 °F -6.6 °F -8.1 °F 60% 30.38 in 10.0 mi ESE 4.6 mph - N/A   Clear
8:55 AM 5.2 °F -3.8 °F -6.5 °F 59% 30.36 in 10.0 mi ESE 4.6 mph - N/A   Clear
9:15 AM 7.3 °F -1.3 °F -5.4 °F 56% 30.35 in 10.0 mi South 4.6 mph - N/A   Clear
9:35 AM 7.9 °F -0.7 °F -4.5 °F 57% 30.36 in 10.0 mi South 4.6 mph - N/A   Clear
9:55 AM 8.8 °F -3.5 °F -3.8 °F 57% 30.34 in 10.0 mi SE 8.1 mph - N/A   Clear
10:15 AM 10.6 °F -3.1 °F -5.1 °F 49% 30.32 in 10.0 mi SE 10.4 mph - N/A   Clear
10:35 AM 10.9 °F -0.8 °F -4.9 °F 49% 30.31 in 10.0 mi SSE 8.1 mph - N/A   Clear
10:55 AM 10.9 °F -0.8 °F -3.8 °F 52% 30.29 in 10.0 mi SSE 8.1 mph - N/A   Clear
11:15 AM 11.8 °F 0.3 °F -3.8 °F 50% 30.27 in 10.0 mi SSE 8.1 mph - N/A   Clear
11:35 AM 12.4 °F 0.0 °F -2.7 °F 51% 30.25 in 10.0 mi SSE 9.2 mph - N/A   Clear
11:55 AM 14.4 °F -0.4 °F -1.3 °F 50% 30.23 in 2.0 mi SE 13.8 mph - N/A   Haze
12:15 PM 16.3 °F 2.7 °F -3.1 °F 42% 30.21 in 0.2 mi SE 12.7 mph 23.0 mph N/A Snow Heavy Snow
12:35 PM 17.6 °F 3.7 °F -4.7 °F 37% 30.20 in 0.8 mi SE 13.8 mph 24.2 mph N/A Snow Light Snow
12:55 PM 18.0 °F 5.4 °F -2.9 °F 40% 30.19 in 4.0 mi SE 11.5 mph - N/A Snow Light Snow
1:15 PM 19.4 °F 6.6 °F -4.0 °F 36% 30.18 in 0.2 mi SE 12.7 mph 18.4 mph N/A Snow Light Snow
1:35 PM 20.7 °F 11.9 °F -3.6 °F 34% 30.17 in 3.0 mi SE 6.9 mph 17.3 mph N/A Snow Light Snow
1:55 PM 20.8 °F 11.2 °F -4.7 °F 32% 30.17 in 7.0 mi SE 8.1 mph - N/A   Clear
2:15 PM 19.6 °F 11.7 °F -2.2 °F 38% 30.18 in 10.0 mi South 5.8 mph - N/A   Clear
2:35 PM 19.4 °F 11.5 °F -1.5 °F 40% 30.17 in 10.0 mi SE 5.8 mph - N/A   Clear
2:55 PM 18.5 °F 10.4 °F -0.8 °F 43% 30.16 in 10.0 mi SSE 5.8 mph - N/A   Clear
3:15 PM 18.5 °F 9.3 °F -0.4 °F 44% 30.16 in 10.0 mi SE 6.9 mph - N/A   Clear
3:35 PM 17.4 °F 7.1 °F 0.1 °F 47% 30.16 in 10.0 mi SSE 8.1 mph - N/A   Clear
3:55 PM 17.2 °F 10.2 °F 0.1 °F 47% 30.17 in 10.0 mi SE 4.6 mph - N/A   Clear
4:15 PM 16.7 °F 11.2 °F 1.0 °F 50% 30.16 in 10.0 mi East 3.5 mph - N/A   Clear
4:35 PM 16.5 °F 9.4 °F 1.8 °F 52% 30.16 in 10.0 mi East 4.6 mph - N/A   Clear
4:55 PM 16.7 °F 8.3 °F 1.9 °F 52% 30.16 in 10.0 mi ESE 5.8 mph - N/A   Clear
5:15 PM 18.0 °F 8.7 °F 1.8 °F 49% 30.16 in 10.0 mi ESE 6.9 mph - N/A   Clear
5:35 PM 18.3 °F 8.2 °F 2.3 °F 50% 30.17 in 10.0 mi ESE 8.1 mph - N/A   Clear
5:55 PM 19.0 °F 9.0 °F 2.1 °F 48% 30.16 in 10.0 mi ESE 8.1 mph - N/A   Clear
6:15 PM 19.4 °F 9.5 °F 2.3 °F 48% 30.16 in 10.0 mi ESE 8.1 mph - N/A   Scattered Clouds
6:35 PM 19.4 °F 11.5 °F 2.5 °F 48% 30.16 in 10.0 mi ESE 5.8 mph - N/A   Mostly Cloudy
6:55 PM 20.1 °F 11.3 °F 2.8 °F 47% 30.17 in 10.0 mi ESE 6.9 mph - N/A   Overcast
7:15 PM 20.3 °F 11.5 °F 3.2 °F 48% 30.17 in 10.0 mi ESE 6.9 mph - N/A   Overcast
7:35 PM 20.7 °F 14.2 °F 2.8 °F 46% 30.17 in 10.0 mi East 4.6 mph - N/A   Overcast
7:55 PM 20.8 °F 14.4 °F 3.4 °F 47% 30.17 in 10.0 mi East 4.6 mph - N/A   Overcast
8:15 PM 21.2 °F 12.6 °F 3.6 °F 47% 30.17 in 10.0 mi ESE 6.9 mph - N/A   Overcast
8:35 PM 21.6 °F 12.1 °F 3.6 °F 46% 30.17 in 10.0 mi ESE 8.1 mph - N/A   Overcast
8:55 PM 21.7 °F 13.2 °F 3.7 °F 46% 30.16 in 10.0 mi ESE 6.9 mph - N/A   Overcast
9:15 PM 22.5 °F 15.1 °F 3.6 °F 44% 30.16 in 10.0 mi ESE 5.8 mph 16.1 mph N/A   Overcast
9:35 PM 22.5 °F 10.5 °F 4.5 °F 46% 30.16 in 10.0 mi SE 12.7 mph 17.3 mph N/A   Overcast
9:55 PM 22.5 °F 13.2 °F 4.5 °F 46% 30.17 in 10.0 mi SE 8.1 mph - N/A   Overcast
10:15 PM 22.3 °F 11.5 °F 4.3 °F 46% 30.17 in 10.0 mi ESE 10.4 mph 18.4 mph N/A   Mostly Cloudy
10:35 PM 22.1 °F 10.6 °F 4.5 °F 47% 30.17 in 10.0 mi ESE 11.5 mph 18.4 mph N/A   Scattered Clouds
10:55 PM 21.9 °F 10.4 °F 5.2 °F 49% 30.18 in 10.0 mi ESE 11.5 mph 17.3 mph N/A   Clear
11:15 PM 21.9 °F 11.0 °F 4.6 °F 48% 30.18 in 10.0 mi ESE 10.4 mph 18.4 mph N/A   Scattered Clouds
11:35 PM 21.9 °F 14.5 °F 4.3 °F 47% 30.18 in 10.0 mi ESE 5.8 mph - N/A   Scattered Clouds
11:55 PM 21.9 °F 11.0 °F 4.6 °F 48% 30.17 in 10.0 mi ESE 10.4 mph - N/A   Scattered Clouds